Location: Grange Rosano
(44.4500°N, 6.9667°E)
Time: 21:24:58
(UTC+00:00)

SL-19 R/B - Pass Details

Date: 26 May 2022
Orbit: 796 x 1009 km, 99.5° (Epoch: 01 July)

Event Time Altitude Azimuth Distance (km) Brightness Sun altitude
Rises 02:46:16 0° 13° (NNE) 3,707 8.6 -10.5°
Reaches altitude 10° 02:48:48 10° 12° (NNE) 2,734 7.8 -10.2°
Maximum altitude 02:54:56 78° 288° (WNW) 969 4.5 -9.4°
Drops below altitude 10° 03:00:43 10° 203° (SSW) 2,581 6.2 -8.6°
Enters shadow 03:01:23 - 203° (SSW) 2,841 6.4 -8.5°
